User: anonymous   Login
Location: Unspecified
(0.0000°N, 0.0000°E)
Time: 22:21:30
(UTC+00:00)
Language:

SIRIUS FM-5 - Orbit

View from above orbital plane
View from above orbital plane
View from above satellite
View from above satellite

Ground track
Ground track

The orbit is defined by the following mean orbital elements,

1 35493U          26145.42406005 +.00000000 +00000-0 +00000-0 0 00006
2 35493   0.0123 288.7843 0000655   3.5620  17.1770  1.00272520    06
Epoch (UTC): 25 May 2026 10:10:38
Eccentricity: 0.0000655
inclination: 0.0123°
perigee height: 35784 km
apogee height: 35789 km
right ascension of ascending node: 288.7843°
argument of perigee: 3.5620°
revolutions per day: 1.00272520
mean anomaly at epoch: 17.1770°

The dashed part of the orbit path shows where the satellite is in the earth's shadow,  

DLR